FW4012 Weather Reports


Display with metric or nautical units.
time (UTC)temp
F
wind
direction
speed
MPH
gust
MPH
rain 1hr
in
rain 24hr
in
rain mn
in
humidity
%
barometer
mb
20260505214258 54 115 0.0 1.0 0.63 6.73 1.71 95 1010.8
20260505213734 54 115 0.0 2.0 0.55 6.65 1.69 95 1010.9
20260505213235 54 115 1.0 2.0 0.51 6.57 1.67 95 1010.9
20260505212735 54 115 1.0 3.0 0.28 6.34 1.61 95 1011.0
20260505212232 54 115 1.0 4.0 0.20 6.26 1.59 95 1011.1
20260505211733 54 115 1.0 4.0 0.12 6.18 1.57 95 1011.1
20260505211233 54 138 0.0 3.0 0.12 6.18 1.57 95 1011.1
20260505210734 54 138 1.0 6.0 0.12 6.18 1.57 95 1011.1
20260505210233 54 153 4.0 6.0 0.04 6.10 1.55 95 1011.2
20260505205734 54 133 3.0 4.0 0.04 6.10 1.55 95 1011.3
20260505205233 54 134 2.0 4.0 0.04 6.10 1.55 95 1011.3
20260505204734 54 135 3.0 4.0 0.04 6.10 1.55 95 1011.3
20260505204232 54 121 2.0 4.0 0.04 6.10 1.55 95 1011.4
20260505203757 54 125 2.0 4.0 0.04 6.10 1.55 95 1011.4
20260505203234 54 125 1.0 4.0 0.04 6.06 1.54 95 1011.4
20260505202734 54 125 3.0 7.0 0.12 6.06 1.54 95 1011.4
20260505202235 54 130 3.0 7.0 0.35 6.06 1.54 95 1011.5
20260505201734 54 154 2.0 6.0 0.59 6.06 1.54 95 1011.5
20260505201255 54 119 3.0 6.0 0.59 6.06 1.54 95 1011.4
20260505200732 54 146 3.0 4.0 0.71 6.06 1.54 95 1011.4
20260505200232 54 144 2.0 7.0 0.91 6.06 1.54 95 1011.4
20260505195728 54 124 3.0 7.0 0.98 6.06 1.54 95 1011.3
20260505195229 54 110 3.0 6.0 1.10 6.06 1.54 95 1011.2
20260505194756 54 130 2.0 4.0 1.18 6.06 1.54 95 1011.2
20260505194231 54 238 0.0 3.0 1.22 6.06 1.54 95 1011.1
20260505193750 54 243 1.0 2.0 1.26 6.06 1.54 94 1011.2
20260505193230 54 243 0.0 2.0 1.26 6.02 1.53 94 1011.1
20260505192750 54 243 0.0 2.0 1.18 5.94 1.51 94 1011.1
20260505192229 54 243 0.0 2.0 0.87 5.63 1.43 94 1011.2
20260505191757 54 243 1.0 2.0 0.79 5.47 1.39 94 1011.1
20260505191234 54 243 1.0 3.0 0.79 5.47 1.39 94 1011.1
20260505190732 54 243 1.0 3.0 0.71 5.31 1.35 94 1011.0
20260505190227 54 243 2.0 3.0 0.63 5.16 1.31 94 1011.0
20260505185743 54 243 2.0 3.0 0.63 5.08 1.29 94 1010.9
20260505185243 54 243 2.0 3.0 0.59 4.92 1.25 94 1010.8
20260505184743 54 235 1.0 3.0 0.67 4.88 1.24 94 1010.9
20260505184242 54 235 1.0 3.0 0.63 4.84 1.23 94 1010.7
20260505183740 54 207 1.0 3.0 0.63 4.80 1.22 94 1010.8
20260505183240 54 180 1.0 2.0 0.59 4.76 1.21 94 1010.8
20260505182741 54 157 1.0 3.0 0.63 4.76 1.21 94 1010.8
20260505182243 54 252 0.0 2.0 0.63 4.72 1.20 94 1010.7
20260505181814 54 261 1.0 2.0 0.67 4.69 1.19 94 1010.8
20260505181239 54 261 2.0 3.0 0.79 4.69 1.19 94 1010.8
20260505180737 54 261 1.0 3.0 0.75 4.61 1.17 94 1010.8
20260505180235 54 261 2.0 3.0 0.71 4.53 1.15 94 1010.8
20260505175735 54 261 1.0 3.0 0.63 4.45 1.13 94 1010.7
20260505175234 54 260 1.0 4.0 0.59 4.33 1.10 94 1010.8
20260505174734 54 260 2.0 4.0 0.55 4.21 1.07 94 1010.9
20260505174233 54 279 1.0 4.0 0.63 4.21 1.07 94 1010.9
20260505173728 54 275 1.0 4.0 0.71 4.17 1.06 94 1010.8
20260505173226 54 5 3.0 4.0 0.79 4.17 1.06 94 1010.9
20260505172734 54 332 2.0 3.0 0.83 4.13 1.05 94 1010.9
20260505172232 54 342 1.0 4.0 0.83 4.09 1.04 94 1010.9
20260505171747 54 339 3.0 4.0 0.75 4.02 1.02 94 1010.9
20260505171227 54 319 3.0 5.0 0.63 3.90 0.99 93 1010.8
20260505170729 54 333 3.0 6.0 0.59 3.86 0.98 93 1010.9
20260505170230 54 323 4.0 6.0 0.55 3.82 0.97 93 1010.9
20260505165729 54 347 3.0 6.0 0.63 3.82 0.97 93 1010.9
20260505165229 54 315 3.0 6.0 0.55 3.74 0.95 93 1010.8
20260505164729 54 321 3.0 6.0 0.51 3.66 0.93 93 1010.9
20260505164249 54 344 3.0 6.0 0.43 3.58 0.91 93 1010.9
20260505163724 54 339 2.0 5.0 0.31 3.46 0.88 93 1011.0
20260505163251 54 342 3.0 5.0 0.28 3.39 0.86 93 1011.1
20260505162750 54 306 2.0 5.0 0.20 3.31 0.84 93 1011.0
20260505162246 54 317 2.0 5.0 0.16 3.27 0.83 93 1011.0
20260505161748 54 324 3.0 5.0 0.16 3.27 0.83 93 1011.0
20260505161249 54 349 3.0 5.0 0.16 3.27 0.83 93 1011.0
20260505160750 54 326 3.0 5.0 0.16 3.27 0.83 93 1011.1
20260505160225 54 331 4.0 5.0 0.12 3.23 0.83 93 1011.0
20260505153239 54 11 4.0 8.0 0.20 3.11 0.79 93 1011.2
20260505152800 54 329 4.0 5.0 0.24 3.11 0.79 93 1011.3
20260505152300 54 331 3.0 8.0 0.24 3.11 0.79 93 1011.2
20260505151739 54 313 3.0 8.0 0.24 3.11 0.79 93 1011.3
20260505151239 54 295 3.0 5.0 0.24 3.11 0.79 93 1011.2
20260505150809 54 323 3.0 4.0 0.24 3.11 0.79 93 1011.3
20260505150248 54 294 3.0 4.0 0.24 3.11 0.79 93 1011.2
20260505140236 54 350 5.0 8.0 0.24 2.83 0.72 92 1011.5
20260505130227 55 333 3.0 4.0 0.12 2.60 0.66 91 1012.0
20260505124738 54 338 4.0 6.0 0.08 2.56 0.65 91 1012.0
20260505124239 55 360 3.0 4.0 0.08 2.56 0.65 91 1011.9
20260505123737 55 32 2.0 4.0 0.04 2.52 0.64 91 1012.0
20260505123238 55 16 2.0 6.0 0.08 2.52 0.64 91 1012.0
20260505122738 55 11 3.0 8.0 0.08 2.52 0.64 91 1011.9
20260505122239 55 335 5.0 8.0 0.12 2.52 0.64 91 1011.9
20260505121738 55 348 2.0 4.0 0.16 2.52 0.64 91 1012.0
20260505121232 55 32 1.0 3.0 0.16 2.48 0.63 91 1012.0
20260505120731 55 32 0.0 3.0 0.16 2.48 0.63 91 1011.8
20260505120227 55 32 2.0 3.0 0.20 2.48 0.63 91 1011.8
20260505115727 55 32 1.0 2.0 0.24 2.48 0.63 91 1011.9
20260505115255 55 355 0.0 2.0 0.28 2.48 0.63 91 1011.9
20260505114733 55 355 0.0 3.0 0.31 2.48 0.63 91 1011.9
20260505114231 55 5 1.0 5.0 0.31 2.48 0.63 91 1012.0
20260505113730 55 23 3.0 5.0 0.35 2.48 0.63 91 1012.0
20260505113250 55 346 2.0 4.0 0.31 2.44 0.62 91 1012.1
20260505112725 55 339 2.0 4.0 0.35 2.44 0.62 91 1012.1
20260505112226 55 321 0.0 2.0 0.31 2.40 0.61 91 1012.2
20260505111726 55 321 0.0 2.0 0.28 2.36 0.60 91 1012.1
20260505111227 55 321 1.0 2.0 0.24 2.32 0.59 91 1012.2
20260505110728 55 321 0.0 4.0 0.28 2.32 0.59 91 1012.2
20260505110247 55 321 2.0 4.0 0.24 2.24 0.57 91 1012.1
20260505101729 55 347 4.0 9.0 0.35 2.09 0.53 91 1012.1
20260505101231 55 339 5.0 9.0 0.39 2.09 0.53 91 1012.1
20260505100733 55 30 4.0 8.0 0.35 2.05 0.52 91 1012.1
20260505100231 55 329 4.0 9.0 0.31 2.01 0.51 91 1012.2
20260505095741 55 326 4.0 9.0 0.35 2.01 0.51 91 1012.2
20260505095229 55 338 4.0 8.0 0.28 1.93 0.49 91 1012.3
20260505094800 55 314 5.0 8.0 0.24 1.89 0.48 91 1012.3
20260505094234 56 316 4.0 8.0 0.20 1.85 0.47 91 1012.3
20260505093755 56 319 3.0 8.0 0.20 1.81 0.46 91 1012.3
20260505093300 55 319 4.0 6.0 0.20 1.81 0.46 91 1012.4
20260505092740 55 11 3.0 6.0 0.16 1.77 0.45 91 1012.4
20260505092239 55 360 3.0 5.0 0.16 1.77 0.45 91 1012.4
20260505091739 56 355 2.0 5.0 0.12 1.73 0.44 92 1012.3
20260505091238 55 336 2.0 5.0 0.08 1.69 0.43 92 1012.2
20260505090737 55 355 3.0 5.0 0.08 1.69 0.43 92 1012.2
20260505090235 55 355 3.0 5.0 0.08 1.69 0.43 92 1012.3
20260505085734 55 350 3.0 5.0 0.04 1.65 0.42 92 1012.2
20260505085229 55 332 4.0 5.0 0.04 1.65 0.42 92 1012.2
20260505084748 55 317 2.0 6.0 0.04 1.65 0.42 92 1012.2
20260505084248 55 355 5.0 8.0 0.04 1.61 0.41 92 1012.0
20260505083727 55 360 4.0 8.0 0.04 1.61 0.41 92 1012.0
20260505083227 55 329 4.0 10.0 0.04 1.61 0.41 92 1011.9
20260505082728 55 326 5.0 10.0 0.04 1.61 0.41 92 1011.9
20260505082230 55 360 4.0 9.0 0.04 1.61 0.41 92 1011.9
20260505081730 54 339 5.0 9.0 0.08 1.61 0.41 92 1011.7
20260505081230 54 342 4.0 8.0 0.08 1.61 0.41 92 1011.7
20260505080726 54 345 5.0 9.0 0.12 1.61 0.41 92 1011.8
20260505080227 54 346 4.0 9.0 0.12 1.61 0.41 92 1011.8
20260505075727 54 17 3.0 11.0 0.20 1.61 0.41 91 1011.7
20260505075228 54 345 5.0 11.0 0.24 1.61 0.41 91 1011.6
20260505074727 54 323 7.0 10.0 0.31 1.61 0.41 91 1011.7
20260505074228 54 309 7.0 10.0 0.43 1.57 0.40 91 1011.6
20260505073727 54 336 4.0 9.0 0.63 1.57 0.40 91 1011.8
20260505073228 54 360 6.0 10.0 0.75 1.57 0.40 91 1011.7
20260505072729 54 347 5.0 10.0 0.83 1.57 0.40 91 1011.8
20260505072228 54 321 5.0 8.0 0.91 1.57 0.40 91 1011.9
20260505071730 54 5 4.0 8.0 0.91 1.54 0.39 91 1012.0
20260505071249 54 321 3.0 9.0 0.94 1.54 0.39 91 1011.7
20260505070727 53 337 5.0 9.0 0.94 1.50 0.38 90 1011.9
20260505070224 53 346 4.0 6.0 0.91 1.46 0.37 90 1012.1
20260505065723 53 18 3.0 6.0 0.91 1.42 0.36 90 1012.1
20260505065253 53 9 4.0 6.0 0.87 1.38 0.35 90 1012.0
20260505064751 53 313 3.0 4.0 0.79 1.26 0.32 90 1012.0
20260505064230 53 301 2.0 5.0 0.71 1.14 0.29 89 1012.0
20260505063728 53 278 1.0 5.0 0.51 0.94 0.24 89 1012.0
20260505063228 53 355 3.0 5.0 0.43 0.83 0.21 89 1012.0
20260505062724 53 360 3.0 6.0 0.35 0.71 0.19 89 1011.7
20260505062242 53 11 3.0 8.0 0.35 0.67 0.17 89 1011.7
20260505061741 53 355 4.0 8.0 0.31 0.63 0.16 89 1011.7
20260505061301 53 22 4.0 8.0 0.31 0.59 0.15 88 1011.7
20260505060739 53 355 4.0 8.0 0.31 0.55 0.14 88 1011.7
20260505060240 53 302 3.0 5.0 0.35 0.55 0.14 88 1011.7
20260505055745 53 360 3.0 5.0 0.35 0.51 0.13 88 1011.7
20260505055244 53 341 3.0 8.0 0.35 0.51 0.13 88 1011.6
20260505054803 53 319 4.0 8.0 0.31 0.47 0.12 88 1011.6
20260505054241 53 355 3.0 8.0 0.28 0.43 0.11 87 1011.4
20260505053736 53 336 4.0 8.0 0.31 0.43 0.11 87 1011.3
20260505053235 53 344 4.0 10.0 0.28 0.39 0.10 87 1011.3
20260505052732 53 334 4.0 10.0 0.24 0.35 0.09 87 1011.1
20260505052232 53 317 4.0 8.0 0.20 0.31 0.08 87 1011.2
20260505051731 54 332 1.0 11.0 0.24 0.31 0.08 86 1011.2
20260505051231 54 302 4.0 11.0 0.20 0.28 0.07 86 1011.2
20260505050732 54 311 4.0 11.0 0.16 0.24 0.06 86 1011.2
20260505050232 54 327 5.0 11.0 0.16 0.20 0.05 86 1011.1
20260505041732 55 9 1.0 2.0 0.08 0.08 0.02 85 1010.9
20260505041232 55 9 0.0 0.0 0.08 0.08 0.02 84 1010.9
20260505040733 55 5 0.0 0.0 0.04 0.04 0.01 83 1011.0
20260505040231 55 9 0.0 0.0 0.04 0.04 0.01 82 1011.0
20260505035731 55 5 0.0 0.0 0.00 0.00 0.00 82 1011.0
20260505035228 55 5 0.0 0.0 0.00 0.00 0.00 82 1011.1
20260505034727 56 5 0.0 0.0 0.00 0.00 0.00 81 1011.0
20260505034227 56 5 0.0 0.0 0.00 0.00 0.00 80 1011.0
20260505033746 56 5 0.0 0.0 0.00 0.00 0.00 79 1010.9
20260505033226 56 5 0.0 1.0 0.00 0.00 0.00 78 1010.9
20260505032726 56 5 0.0 1.0 0.00 0.00 0.00 77 1011.0
20260505032250 56 5 0.0 1.0 0.00 0.00 0.00 77 1011.0
20260505031729 56 5 1.0 1.0 0.00 0.00 0.00 77 1011.0
20260505031228 56 5 0.0 1.0 0.00 0.00 0.00 77 1011.1
20260505030728 56 5 0.0 1.0 0.00 0.00 0.00 76 1011.2
20260505030226 57 5 0.0 1.0 0.00 0.00 0.00 76 1011.2
20260505025725 57 5 0.0 3.0 0.00 0.00 0.00 75 1011.1
20260505025224 57 5 1.0 3.0 0.00 0.00 0.00 75 1011.1
20260505024724 57 159 0.0 3.0 0.00 0.00 0.00 75 1011.1
20260505024250 57 280 0.0 3.0 0.00 0.00 0.00 73 1011.2
20260505023749 57 280 2.0 4.0 0.00 0.00 0.00 73 1011.2
20260505023249 57 275 2.0 7.0 0.00 0.00 0.00 73 1011.3
20260505022750 57 257 2.0 7.0 0.00 0.00 0.00 73 1011.5
20260505022250 57 275 1.0 4.0 0.00 0.00 0.00 73 1011.6
20260505021738 57 273 2.0 4.0 0.00 0.00 0.00 74 1011.7
20260505021302 57 283 2.0 4.0 0.00 0.00 0.00 75 1011.8
20260505020740 57 263 2.0 4.0 0.00 0.00 0.00 76 1011.8
20260505020240 57 274 1.0 2.0 0.00 0.00 0.00 75 1011.9
20260505015738 57 265 1.0 3.0 0.00 0.00 0.00 73 1012.0
20260505015238 57 265 1.0 3.0 0.00 0.00 0.00 73 1012.0
20260505014738 57 267 1.0 3.0 0.00 0.00 0.00 73 1012.0
20260505014237 57 226 1.0 3.0 0.00 0.00 0.00 73 1012.0
20260505013735 57 226 2.0 4.0 0.00 0.00 0.00 73 1012.2
20260505013235 57 238 2.0 5.0 0.00 0.00 0.00 73 1012.2
20260505012732 57 250 2.0 5.0 0.00 0.00 0.00 73 1012.2
20260505012248 57 261 1.0 6.0 0.00 0.00 0.00 74 1012.3
20260505011727 57 266 2.0 5.0 0.00 0.00 0.00 74 1012.3
20260505011228 57 242 1.0 4.0 0.00 0.00 0.00 74 1012.4
20260505010726 57 242 1.0 4.0 0.00 0.00 0.00 74 1012.5
20260505010254 57 236 1.0 4.0 0.00 0.00 0.00 74 1012.5
20260505005732 57 242 2.0 6.0 0.00 0.00 0.00 75 1012.5
20260505005232 56 231 3.0 6.0 0.00 0.00 0.00 76 1012.6
20260505004733 56 226 0.0 4.0 0.00 0.00 0.00 78 1012.7
20260505004234 56 238 1.0 4.0 0.00 0.00 0.00 79 1012.8
20260505003732 56 200 1.0 2.0 0.00 0.00 0.00 80 1013.0
20260505003231 56 200 1.0 4.0 0.00 0.00 0.00 80 1013.2
20260505002730 56 200 1.0 4.0 0.00 0.00 0.00 81 1013.2
20260505002228 56 215 1.0 5.0 0.00 0.00 0.00 81 1013.3
20260505001746 56 296 1.0 4.0 0.00 0.00 0.00 82 1013.4
20260505001253 56 170 0.0 0.0 0.00 0.00 0.00 81 1013.4
20260505000750 55 113 0.0 0.0 0.00 0.00 0.00 81 1013.5
20260505000223 55 113 0.0 0.0 0.00 0.00 0.00 81 1013.6
20260504235741 55 113 0.0 1.0 0.00 0.00 0.00 81 1013.8
20260504235304 55 113 0.0 2.0 0.00 0.00 0.00 81 1013.8
20260504234827 55 113 0.0 2.0 0.00 0.00 0.00 81 1013.9
20260504233732 55 113 0.0 2.0 0.00 0.00 0.00 81 1013.9
20260504233233 55 113 1.0 2.0 0.00 0.00 0.00 81 1013.9
20260504232731 55 232 0.0 0.0 0.00 0.00 0.00 81 1013.9
20260504232229 55 232 0.0 0.0 0.00 0.00 0.00 81 1014.1
20260504231752 55 232 0.0 0.0 0.00 0.00 0.00 81 1014.0
20260504231231 55 232 0.0 0.0 0.00 0.00 0.00 81 1014.0
20260504230730 55 232 0.0 0.0 0.00 0.00 0.00 81 1014.1
20260504230250 55 232 0.0 1.0 0.00 0.00 0.00 81 1014.2
20260504225728 55 232 0.0 1.0 0.00 0.00 0.00 81 1014.3
20260504225228 55 232 0.0 1.0 0.00 0.00 0.00 81 1014.3
20260504224758 55 232 0.0 1.0 0.00 0.00 0.00 81 1014.4
20260504224237 55 232 0.0 0.0 0.00 0.00 0.00 81 1014.5
20260504223758 55 232 0.0 2.0 0.00 0.00 0.00 81 1014.5
20260504223252 55 232 0.0 2.0 0.00 0.00 0.00 81 1014.5
20260504222730 55 232 0.0 0.0 0.00 0.00 0.00 81 1014.6
20260504222259 55 232 0.0 0.0 0.00 0.00 0.00 81 1014.6
20260504221737 55 232 0.0 1.0 0.00 0.00 0.00 81 1014.6
20260504221237 55 232 0.0 1.0 0.00 0.00 0.00 81 1014.6
20260504220737 55 232 0.0 0.0 0.00 0.00 0.00 81 1014.6
20260504220257 55 232 0.0 0.0 0.00 0.00 0.00 81 1014.7
20260504215737 55 232 0.0 1.0 0.00 0.00 0.00 81 1014.7
20260504215237 55 232 0.0 1.0 0.00 0.00 0.00 81 1014.8
20260504214731 55 232 0.0 0.0 0.00 0.00 0.00 81 1014.8